遥感四十三号01组-F (YAOGAN-43 O1F)

导读

YAOGAN-43 O1F(遥感四十三卫星)是中国于2024年8月16日发射的遥感卫星,作为中国遥感卫星系列的新成员,它延续了我国遥感卫星的技术积累,将服务于国土测绘、农业估产、环境监测、灾害应急等领域,可获取全球高分辨率地表观测数据,助力我国对地球资源与环境的动态监测,也将为全球气候变化研究、防灾减灾等领域提供有力的数据支撑,进一步完善我国遥感卫星观测体系,提升空间对地观测能力。

基本信息
目录编号:
60463
目录名称:
YAOGAN-43 O1F
国际标识:
2024-148F
轨道中心:
EARTH
卫星名称:
遥感四十三号01组-F (YAOGAN-43 O1F)
卫星全名:
遥感四十三号01组-F (YAOGAN-43 O1F)
卫星状态:
在轨 (已飞行710 天)
发射日期:
2024-08-16 UTC
国别 :
中国 (CN)
星等 :
--
轨道信息
数据来源 国际轨道数据 AOE轨道数据
星历时间 2026-07-27T19:52:40+0800
9小时前
查看轨道信息
2026-07-26T01:00:00+0800
2天前
查看轨道信息
半长轴 6843.74km 6843.902km
偏心率 0.00084 0.0008428
轨道倾角 34.991° 34.991°
近地点辐角 228.878° 214.835°
升交点赤经 250.850° 262.266°
平近点角 131.121° 346.394°
近地点 459.854km 459.996km
远地点 471.352km 471.534km
周期 93.907分钟 93.911分钟
每日圈数 15.334252 15.333706
详细信息
运营商:
中国空间技术研究院
运营商所在国:
中国
制造商(研发单位):
中国空间技术研究院
制造商所在国:
中国
使用方式:
暂无
卫星简介
遥感四十三号卫星组分别由航天科技集团五院和八院等抓总研制,主要用于开展低轨星座系统新技术试验。
2D轨道图
3D轨道图
轨道高度分析图
轨道倾角分析图
轨道综合分析图
查看轨道综合分析图